When you browse on this site, cookies collect data to enhance your experience and personalize the content and advertising you see.
Visit our Privacy Policy to learn more. By continuing to use the site, you agree to this use of cookies and data.

Hourly Weather Dallas

Today, 14 July, Tuesday

Time Temperature Precipitation Wind Pressure Humidity
00:00 +34°C° 0 mm 7 mps 745 mmHg 49%
01:00 +34°C° 0 mm 6 mps 745 mmHg 52%
02:00 +33°C° 0 mm 6 mps 745 mmHg 56%
03:00 +32°C° 0 mm 6 mps 745 mmHg 59%
04:00 +32°C° 0 mm 5 mps 745 mmHg 59%
05:00 +30°C° 0 mm 5 mps 746 mmHg 59%
06:00 +30°C° 0 mm 4 mps 746 mmHg 59%
07:00 +32°C° 0 mm 5 mps 746 mmHg 56%
08:00 +33°C° 0 mm 6 mps 746 mmHg 54%
09:00 +34°C° 0 mm 6 mps 746 mmHg 52%
10:00 +36°C° 0 mm 6 mps 746 mmHg 46%
11:00 +39°C° 0 mm 5 mps 746 mmHg 40%
12:00 +41°C° 0 mm 5 mps 746 mmHg 33%
13:00 +42°C° 0 mm 5 mps 746 mmHg 31%
14:00 +44°C° 0 mm 6 mps 745 mmHg 28%
15:00 +45°C° 0 mm 6 mps 745 mmHg 25%
16:00 +44°C° 0 mm 6 mps 745 mmHg 27%
17:00 +42°C° 0 mm 6 mps 745 mmHg 29%
18:00 +42°C° 0 mm 6 mps 744 mmHg 31%
19:00 +40°C° 0 mm 7 mps 745 mmHg 34%
20:00 +38°C° 0 mm 7 mps 745 mmHg 38%
21:00 +36°C° 0 mm 7 mps 745 mmHg 41%
22:00 +35°C° 0 mm 8 mps 745 mmHg 45%
23:00 +34°C° 0 mm 8 mps 745 mmHg 49%

Tomorrow, 15 July, Wednesday

Time Temperature Precipitation Wind Pressure Humidity
00:00 +33°C° 0 mm 8 mps 746 mmHg 54%
01:00 +33°C° 0 mm 7 mps 746 mmHg 55%
02:00 +32°C° 0 mm 7 mps 746 mmHg 57%
03:00 +30°C° 0 mm 6 mps 746 mmHg 58%
04:00 +30°C° 0 mm 6 mps 746 mmHg 60%
05:00 +29°C° 0 mm 6 mps 747 mmHg 62%
06:00 +29°C° 0 mm 5 mps 747 mmHg 64%
07:00 +30°C° 0 mm 6 mps 747 mmHg 61%
08:00 +32°C° 0 mm 6 mps 747 mmHg 59%
09:00 +33°C° 0 mm 6 mps 747 mmHg 56%
10:00 +35°C° 0 mm 6 mps 747 mmHg 50%
11:00 +38°C° 0 mm 6 mps 747 mmHg 44%
12:00 +40°C° 0 mm 7 mps 747 mmHg 38%
13:00 +41°C° 0 mm 6 mps 747 mmHg 35%
14:00 +42°C° 0 mm 6 mps 746 mmHg 32%
15:00 +42°C° 0 mm 6 mps 746 mmHg 29%
16:00 +42°C° 0 mm 5 mps 746 mmHg 29%
17:00 +42°C° 0 mm 5 mps 746 mmHg 30%
18:00 +41°C° 0 mm 4 mps 745 mmHg 30%
19:00 +40°C° 0 mm 4 mps 746 mmHg 35%
20:00 +37°C° 0 mm 5 mps 746 mmHg 40%
21:00 +36°C° 0 mm 5 mps 746 mmHg 45%
22:00 +35°C° 0 mm 6 mps 747 mmHg 48%
23:00 +34°C° 0 mm 6 mps 747 mmHg 50%

Day after tomorrow, 16 July, Thursday

Time Temperature Precipitation Wind Pressure Humidity
00:00 +34°C° 0 mm 7 mps 747 mmHg 53%
01:00 +33°C° 0 mm 6 mps 748 mmHg 55%
02:00 +32°C° 0 mm 6 mps 748 mmHg 57%
03:00 +32°C° 0 mm 5 mps 748 mmHg 59%
04:00 +32°C° 0 mm 5 mps 748 mmHg 60%
05:00 +30°C° 0 mm 5 mps 749 mmHg 62%
06:00 +30°C° 0 mm 4 mps 749 mmHg 63%
07:00 +32°C° 0 mm 5 mps 749 mmHg 59%
08:00 +33°C° 0 mm 5 mps 749 mmHg 56%
09:00 +34°C° 0 mm 5 mps 750 mmHg 53%
10:00 +36°C° 0 mm 5 mps 750 mmHg 47%
11:00 +39°C° 0 mm 5 mps 749 mmHg 41%
12:00 +41°C° 0 mm 5 mps 749 mmHg 36%
13:00 +42°C° 0 mm 4 mps 749 mmHg 32%
14:00 +43°C° 0 mm 4 mps 749 mmHg 29%
15:00 +44°C° 0 mm 4 mps 748 mmHg 26%
16:00 +43°C° 0 mm 4 mps 748 mmHg 26%
17:00 +43°C° 0 mm 4 mps 748 mmHg 27%
18:00 +42°C° 0 mm 4 mps 748 mmHg 27%
19:00 +41°C° 0 mm 4 mps 748 mmHg 31%
20:00 +39°C° 0 mm 5 mps 748 mmHg 35%
21:00 +36°C° 0 mm 6 mps 749 mmHg 39%
22:00 +36°C° 0 mm 5 mps 749 mmHg 40%
23:00 +35°C° 0 mm 5 mps 749 mmHg 40%

17 July, Friday

Time Temperature Precipitation Wind Pressure Humidity
00:00 +34°C° 0 mm 4 mps 749 mmHg 41%
01:00 +34°C° 0 mm 4 mps 749 mmHg 45%
02:00 +33°C° 0 mm 4 mps 749 mmHg 49%
03:00 +32°C° 0 mm 4 mps 749 mmHg 52%
04:00 +32°C° 0 mm 4 mps 749 mmHg 54%
05:00 +31°C° 0 mm 3 mps 750 mmHg 56%
06:00 +31°C° 0 mm 3 mps 750 mmHg 58%
07:00 +33°C° 0 mm 3 mps 751 mmHg 54%
08:00 +34°C° 0 mm 3 mps 751 mmHg 50%
09:00 +35°C° 0 mm 2 mps 751 mmHg 45%
10:00 +37°C° 0 mm 2 mps 751 mmHg 42%
11:00 +38°C° 0 mm 2 mps 751 mmHg 38%
12:00 +39°C° 0 mm 2 mps 750 mmHg 35%
13:00 +40°C° 0 mm 3 mps 750 mmHg 33%
14:00 +40°C° 0 mm 3 mps 749 mmHg 32%
15:00 +42°C° 0 mm 4 mps 749 mmHg 31%
16:00 +41°C° 0 mm 4 mps 749 mmHg 33%
17:00 +40°C° 0 mm 4 mps 748 mmHg 36%
18:00 +38°C° 0 mm 4 mps 748 mmHg 38%
19:00 +37°C° 0 mm 4 mps 749 mmHg 43%
20:00 +36°C° 0 mm 4 mps 749 mmHg 47%
21:00 +35°C° 0 mm 4 mps 749 mmHg 52%
22:00 +34°C° 0 mm 4 mps 749 mmHg 54%
23:00 +34°C° 0 mm 5 mps 749 mmHg 57%

18 July, Saturday

Time Temperature Precipitation Wind Pressure Humidity
00:00 +33°C° 0 mm 5 mps 749 mmHg 60%
01:00 +32°C° 0 mm 5 mps 749 mmHg 60%
02:00 +32°C° 0 mm 5 mps 749 mmHg 60%
03:00 +30°C° 0 mm 5 mps 749 mmHg 61%
04:00 +30°C° 0 mm 4 mps 750 mmHg 61%
05:00 +29°C° 0 mm 4 mps 750 mmHg 62%
06:00 +29°C° 0 mm 4 mps 750 mmHg 62%
07:00 +30°C° 0 mm 4 mps 750 mmHg 58%
08:00 +32°C° 0 mm 4 mps 750 mmHg 54%
09:00 +33°C° 0 mm 4 mps 751 mmHg 50%
10:00 +35°C° 0 mm 4 mps 751 mmHg 45%
11:00 +36°C° 0 mm 4 mps 750 mmHg 40%
12:00 +38°C° 0 mm 4 mps 750 mmHg 35%
13:00 +38°C° 0 mm 4 mps 750 mmHg 33%
14:00 +40°C° 0 mm 4 mps 749 mmHg 31%
15:00 +40°C° 0 mm 5 mps 749 mmHg 29%
16:00 +40°C° 0 mm 4 mps 748 mmHg 30%
17:00 +38°C° 0 mm 4 mps 748 mmHg 32%
18:00 +38°C° 0 mm 4 mps 748 mmHg 34%
19:00 +36°C° 0 mm 4 mps 748 mmHg 38%
20:00 +35°C° 0 mm 4 mps 749 mmHg 42%
21:00 +34°C° 0 mm 4 mps 749 mmHg 46%
22:00 +33°C° 0 mm 4 mps 749 mmHg 49%
23:00 +33°C° 0 mm 4 mps 749 mmHg 52%

19 July, Sunday

Time Temperature Precipitation Wind Pressure Humidity
00:00 +32°C° 0 mm 4 mps 749 mmHg 54%
01:00 +32°C° 0 mm 4 mps 749 mmHg 56%
02:00 +30°C° 0 mm 4 mps 749 mmHg 58%
03:00 +29°C° 0 mm 4 mps 749 mmHg 60%
04:00 +29°C° 0 mm 4 mps 749 mmHg 63%
05:00 +29°C° 0 mm 4 mps 749 mmHg 65%
06:00 +28°C° 0 mm 3 mps 750 mmHg 68%
07:00 +30°C° 0 mm 3 mps 750 mmHg 63%
08:00 +31°C° 0 mm 3 mps 750 mmHg 57%
09:00 +33°C° 0 mm 3 mps 750 mmHg 51%
10:00 +35°C° 0 mm 4 mps 750 mmHg 46%
11:00 +36°C° 0 mm 4 mps 750 mmHg 41%
12:00 +37°C° 0 mm 4 mps 750 mmHg 36%
13:00 +38°C° 0 mm 4 mps 749 mmHg 34%
14:00 +38°C° 0 mm 4 mps 749 mmHg 33%
15:00 +40°C° 0 mm 5 mps 748 mmHg 32%
16:00 +40°C° 0 mm 5 mps 748 mmHg 34%
17:00 +39°C° 0 mm 5 mps 748 mmHg 35%
18:00 +39°C° 0 mm 5 mps 748 mmHg 37%
19:00 +36°C° 0 mm 5 mps 748 mmHg 42%
20:00 +35°C° 0 mm 5 mps 748 mmHg 46%
21:00 +34°C° 0 mm 5 mps 748 mmHg 51%
22:00 +33°C° 0 mm 5 mps 748 mmHg 52%
23:00 +33°C° 0 mm 4 mps 748 mmHg 54%
Show more